SNORRE B OILP current weather conditions

sailwx.info

Wind from 110 at 12 knots gusting 22

Air temperature 10.0° C
Visibility: greater than 5.4 NM
Dewpoint 5.0° C

Last reported at 2014-Oct-31 03:20 UTC.
Time now 2014-Oct-31 05:48 UTC

Location: N 61°32' E 002°13'.
View on Google Maps.

See reports from other nearby stations

  
Tides and Currents Weather Stations Pressure Air Temp Water Temp Dewpoint Dewpoint Depression Visibility Wind Speed Wind Dir Waves Ship Positions
date/time (UTC)wind fromknots sea level pressurealtimeterstation pressurevisibilityair tempwater tempwave heightnotes
2014-Oct-31 04:20 120 13 gusting 26 5.410.0
2014-Oct-31 03:50 110 10 gusting 20 5.410.0
2014-Oct-31 03:20 110 12 gusting 22 5.410.0
2014-Oct-31 02:50 120 17 5.410.0
2014-Oct-31 02:20 120 23 5.4 9.0
2014-Oct-31 01:50 120 24 5.4 9.0
2014-Oct-31 01:20 130 22 5.410.0
2014-Oct-31 00:50 130 19 5.410.0
2014-Oct-31 00:20 140 20 5.410.0
2014-Oct-30 23:50 140 20 5.4 9.0
2014-Oct-30 23:20 140 20 5.4 9.0
2014-Oct-30 22:50 140 22 5.4 9.0
2014-Oct-30 22:20 140 23 5.4 9.0
2014-Oct-30 21:50 140 20 5.4 9.0
2014-Oct-30 21:20 140 18 5.4 9.0
2014-Oct-30 20:50 140 22 5.4 9.0
2014-Oct-30 20:20 140 17 5.4 9.0
2014-Oct-30 19:50 140 16 5.4 9.0
2014-Oct-30 19:20 140 20 5.4 9.0
2014-Oct-30 18:50 130 14 5.4 9.0
2014-Oct-30 18:20 140 15 5.4 9.0
2014-Oct-30 17:50 140 12 5.4 9.0
2014-Oct-30 17:20 150 12 5.4 9.0
2014-Oct-30 16:50 150 14 5.4 9.0
2014-Oct-30 16:20 140 15 5.4 9.0
2014-Oct-30 15:50 130 13 5.4 9.0
2014-Oct-30 15:20 140 12 5.4 9.0
2014-Oct-30 14:50 130 11 5.4 9.0
2014-Oct-30 14:20 140 11 5.4 9.0
2014-Oct-30 13:50 140 11 5.4 9.0
2014-Oct-30 13:20 140 10 5.4 9.0
2014-Oct-30 12:50 140 11 5.4 9.0
2014-Oct-30 12:20 150 9 5.4 9.0
2014-Oct-30 11:50 140 9 5.4 9.0
2014-Oct-30 11:20 130 7 5.4 8.0
2014-Oct-30 10:50 140 7 5.4 8.0
2014-Oct-30 10:20 140 7 5.4 8.0
2014-Oct-30 09:50 140 5 5.4 8.0
2014-Oct-30 09:20 170 3 5.4 8.0
2014-Oct-30 08:50 5.4 8.0
2014-Oct-30 08:20 5.4 7.0
2014-Oct-30 07:50 260 3 5.4 7.0
2014-Oct-30 07:20 280 3 5.4 7.0
2014-Oct-30 06:50 290 5 5.4 7.0
2014-Oct-30 06:20 270 6 5.4 7.0
2014-Oct-30 05:50 260 6 5.4 7.0
2014-Oct-30 05:20 270 6 5.4 7.0
2014-Oct-30 04:50 280 8 5.4 7.0
2014-Oct-30 04:20 270 9 5.4 7.0
2014-Oct-30 03:50 280 10 5.4 7.0
2014-Oct-30 03:20 300 10 5.4 7.0
2014-Oct-30 02:50 300 14 5.4 7.0
2014-Oct-30 02:20 280 17 5.4 7.0
2014-Oct-30 01:50 280 15 5.4 7.0
2014-Oct-30 01:20 300 16 5.4 7.0
2014-Oct-30 00:50 290 17 5.4 7.0
2014-Oct-30 00:20 310 20 5.4 7.0
2014-Oct-29 23:50 290 20 5.4 7.0
2014-Oct-29 23:20 280 22 5.4 7.0
2014-Oct-29 22:50 290 19 gusting 30 5.4 7.0
2014-Oct-29 22:20 280 20 5.4 7.0 Light rain showers.
2014-Oct-29 21:50 290 19 5.4 7.0
2014-Oct-29 21:20 280 20 5.4 7.0
2014-Oct-29 20:50 290 22 5.4 7.0
2014-Oct-29 20:20 280 20 5.4 7.0 Light rain.
2014-Oct-29 19:50 280 19 5.4 7.0
2014-Oct-29 19:20 290 20 5.4 7.0
2014-Oct-29 18:50 290 23 5.4 7.0
2014-Oct-29 18:20 290 24 5.4 7.0 Light rain.
2014-Oct-29 17:50 280 23 5.4 7.0
2014-Oct-29 17:20 290 23 5.4 7.0 Light rain showers.
2014-Oct-29 16:50 280 22 5.4 7.0 Light rain showers.
2014-Oct-29 16:20 280 26 5.4 8.0 Light rain showers.
2014-Oct-29 15:50 290 20 5.4 8.0
2014-Oct-29 15:20 280 25 5.4 8.0
2014-Oct-29 14:50 280 22 5.4 8.0 Light rain showers.
2014-Oct-29 14:20 280 24 5.4 8.0
2014-Oct-29 13:50 280 23 5.4 8.0
2014-Oct-29 13:20 280 24 5.4 8.0
2014-Oct-29 12:50 290 24 5.4 8.0
2014-Oct-29 12:20 280 23 5.4 8.0 Light rain showers.
2014-Oct-29 11:50 300 22 5.4 8.0 Light rain showers.
2014-Oct-29 11:20 290 25 5.4 8.0
2014-Oct-29 10:50 300 20 5.4 7.0 Light rain showers.
2014-Oct-29 10:20 290 20 5.4 8.0
2014-Oct-29 09:50 290 20 5.4 8.0
2014-Oct-29 09:20 300 22 5.4 8.0
2014-Oct-29 08:50 310 22 5.4 8.0
2014-Oct-29 08:20 300 23 5.4 7.0
2014-Oct-29 07:50 290 26 5.4 7.0
2014-Oct-29 07:20 290 24 5.4 8.0 Light rain showers.
2014-Oct-29 06:50 280 20 5.4 8.0
2014-Oct-29 06:20 280 19 5.4 8.0
2014-Oct-29 05:50 290 18 5.4 8.0
2014-Oct-29 05:20 280 11 5.4 8.0